Location: Starlight Observatory
(38.4029°N, 85.8936°W)
Time: 19:05:38
(UTC-04:00)

Iridium 84 - Visible Passes

Search period start: 27 July 2016 00:00
Search period end: 06 August 2016 00:00
Orbit: 776 x 779 km, 86.4° (Epoch: 27 July)

Date Brightness Start Highest point End Pass type
(mag) Time Alt. Az. Time Alt. Az. Time Alt. Az.
27 Jul 7.3 00:29:51 10° NNE 00:32:49 22° ENE 00:32:49 22° ENE visible
27 Jul 7.0 02:10:04 10° NNW 02:13:17 30° NW 02:13:17 30° NW visible
27 Jul 7.8 23:57:57 10° NE 23:59:19 12° ENE 23:59:19 12° ENE visible
28 Jul 6.5 01:36:12 10° N 01:39:47 43° NNW 01:39:47 43° NNW visible
29 Jul 6.5 01:02:41 10° N 01:06:17 43° NNE 01:06:17 43° NNE visible
29 Jul 7.9 02:45:35 10° NW 02:46:45 12° WNW 02:46:45 12° WNW visible
30 Jul 6.9 00:29:31 10° NNE 00:32:47 29° NE 00:32:47 29° NE visible
30 Jul 7.4 02:10:35 10° NNW 02:13:15 22° WNW 02:13:15 22° WNW visible
30 Jul 7.5 23:56:52 10° NNE 23:59:18 17° ENE 23:59:18 17° ENE visible
31 Jul 6.9 01:36:28 10° NNW 01:39:46 34° NW 01:39:46 34° NW visible
01 Aug 6.5 01:02:45 10° N 01:06:17 44° N 01:06:17 44° N visible
02 Aug 6.6 00:29:21 10° N 00:32:49 37° NE 00:32:49 37° NE visible
02 Aug 7.8 02:11:23 10° NW 02:13:17 16° WNW 02:13:17 16° WNW visible
02 Aug 7.1 23:56:21 10° NNE 23:59:21 24° NE 23:59:21 24° NE visible
03 Aug 7.3 01:36:51 10° NNW 01:39:49 26° NW 01:39:49 26° NW visible
03 Aug 7.6 23:24:06 10° NE 23:25:53 14° ENE 23:25:53 14° ENE visible
04 Aug 6.7 01:02:55 10° N 01:06:21 39° NNW 01:06:21 39° NNW visible
05 Aug 6.5 00:29:20 10° N 00:32:53 44° NNE 00:32:53 44° NNE visible
05 Aug 8.1 02:12:56 10° WNW 02:13:22 11° WNW 02:13:22 11° WNW visible
